Погода в Благих

Россия / Рязанская область     53°24′47″N   40°16′32″E
темп.,
°C
ветер,
м/с
пор.,
м/с
влажн.,
%
обл.,
%
осадки,
мм/ч
давл.,
гПа
погр.,
м
7 марта, вс
вс700:00−13з47920 0.0 1017106
03:00−13зюз47920 0.0 101699
06:00−13юз49938 0.0 1014164
09:00−9юз8168754 0.0 1010542
12:00−5юз101690100 0.2 1007896
15:00−4юз121993100 0.9 10021251
18:00−3юз101793100 1.4 9981036
21:00−1зюз111992100 1.8 9961171
8 марта, пн
пн800:00−4з81781100 0.9 998835
03:00−8зюз5128652 0.9 1000271
06:00−9зюз512872 0.0 1000267
09:00−6юз7139042 0.0 1000583
12:00−4з9138496 0.1 10011304
15:00−5зсз7107998 0.3 10031068
18:00−9з47880 0.0 1006104
21:00−12зсз33900 0.0 100927
9 марта, вт
вт900:00−13зсз22922 0.0 100921
03:00−13зсз229531 0.0 101121
06:00−12ссз359697 0.3 1011152
09:00−13ссз489494 0.3 1013271
12:00−12ссз479288 0.0 1014449
15:00−11сз578994 0.1 1016631
18:00−14сз4894100 0.0 1017186
21:00−17сз499575 0.1 1020153
10 марта, ср
ср1000:00−18ссз369870 0.0 1021112
03:00−21сз3410084 0.1 102374
06:00−23сз349998 0.0 102478
09:00−22ссз469673 0.0 1026221
12:00−19ссз359359 0.0 1027322
15:00−17ссз358866 0.0 1027412
18:00−20ссз23947 0.0 102720
21:00−22с23943 0.0 102920
11 марта, чт
чт1100:00−23ссв22950 0.0 103020
03:00−25ссв12960 0.0 103120
06:00−25с12940 0.0 103220
09:00−22с22900 0.0 103371
12:00−17с12800 0.0 1033223
15:00−15з11790 0.0 1033277
18:00−20з11890 0.0 103320
21:00−21ююз01870 0.0 103420